Wolf Point, MT

3:20 PM MST on December 09, 2016 (GMT -0700)
Clayton

Weather History for KOLF - August, 2014

Change the Weather History Date:

Wednesday, August 20, 2014

  Actual Average Record
Temperature  
Mean Temperature 71 °F -  
Max Temperature 82 °F 85 °F 93 °F (1999)
Min Temperature 59 °F 52 °F 39 °F (2005)
Degree Days  
Heating Degree Days 0    
Cooling Degree Days 6    
Growing Degree Days 22 (Base 50)    
Moisture  
Dew Point 54 °F    
Average Humidity 55    
Maximum Humidity 75    
Minimum Humidity 39    
Precipitation  
Precipitation T in 0.05 in 0.00 in (2016)
Month to date precipitation 1.27 0.98  
Year to date precipitation 6.44 9.37  
Sea Level Pressure  
Sea Level Pressure 29.66 in    
Wind  
Wind Speed 5 mph (NNW)    
Max Wind Speed 12 mph    
Max Gust Speed -    
Visibility 10 miles    
Events Rain    
T = Trace of Precipitation, MM = Missing Value Source: NWS Daily Summary

Daily Weather History Graph

Daily Weather History Graph

Search for Another Location

Airport or City:

Trip Planner

Search our weather history database for the weather conditions in past years. The results will help you decide how hot, cold, wet, or windy it might be!

Date:

Astronomy

Aug. 20, 2014 Rise Set
Actual Time 6:03 AM MDT 8:06 PM MDT
Civil Twilight 5:30 AM MDT 8:39 PM MDT
Nautical Twilight 4:48 AM MDT 9:21 PM MDT
Astronomical Twilight 4:01 AM MDT 10:07 PM MDT
Moon 1:37 AM MDT (8/20) 5:01 PM MDT (8/20)
Length of Visible Light 15h 09m
Length of Day
14h 02m
Waning Crescent, 20% of the Moon is Illuminated
Aug 20
Waning Crescent
Aug 25
New
Sep 2
First Quarter
Sep 8
Full
Sep 15
Last Quarter

Hourly Weather History & Observations

Time (MDT) Temp. Heat Index Dew Point Humidity Pressure Visibility Wind Dir Wind Speed Gust Speed Precip Events Conditions
12:53 AM 64.9 °F - 45.0 °F 48% 29.56 in 10.0 mi NE 5.8 mph - N/A   Clear
1:53 AM 63.0 °F - 45.0 °F 52% 29.55 in 10.0 mi NE 4.6 mph - N/A   Clear
2:53 AM 64.0 °F - 46.9 °F 54% 29.54 in 10.0 mi East 4.6 mph - N/A   Clear
3:53 AM 66.0 °F - 48.9 °F 54% 29.53 in 10.0 mi NE 4.6 mph - N/A   Clear
4:53 AM 66.0 °F - 50.0 °F 56% 29.54 in 10.0 mi NE 3.5 mph - N/A   Clear
5:53 AM 64.0 °F - 52.0 °F 65% 29.56 in 10.0 mi SSE 4.6 mph - N/A   Clear
6:53 AM 63.0 °F - 54.0 °F 72% 29.57 in 10.0 mi Calm Calm - N/A   Clear
7:53 AM 70.0 °F - 54.0 °F 57% 29.58 in 10.0 mi Calm Calm - N/A   Clear
8:53 AM 71.1 °F - 55.0 °F 57% 29.62 in 10.0 mi South 8.1 mph - N/A   Clear
9:53 AM 73.9 °F - 55.9 °F 53% 29.64 in 10.0 mi SSW 5.8 mph - N/A   Scattered Clouds
10:53 AM 75.0 °F - 54.0 °F 48% 29.67 in 10.0 mi WSW 6.9 mph - N/A   Scattered Clouds
11:53 AM 79.0 °F - 57.0 °F 47% 29.68 in 10.0 mi West 11.5 mph - N/A   Mostly Cloudy
12:05 PM 77.0 °F - 57.9 °F 52% 29.72 in 10.0 mi West 9.2 mph - N/A   Overcast
12:53 PM 79.0 °F - 57.9 °F 48% 29.69 in 10.0 mi NNE 3.5 mph - 0.00 in   Overcast
1:53 PM 75.9 °F - 62.1 °F 62% 29.72 in 10.0 mi WSW 9.2 mph - 0.00 in Rain Light Rain
2:53 PM 77.0 °F - 60.1 °F 56% 29.73 in 10.0 mi SSW 3.5 mph - 0.00 in   Overcast
3:53 PM 79.0 °F - 57.0 °F 47% 29.71 in 10.0 mi North 8.1 mph - N/A   Overcast
4:53 PM 79.0 °F - 55.9 °F 45% 29.72 in 10.0 mi North 8.1 mph - N/A   Scattered Clouds
5:53 PM 81.0 °F 80.5 °F 54.0 °F 39% 29.72 in 10.0 mi NNW 5.8 mph - N/A   Clear
6:53 PM 80.1 °F 80.2 °F 55.9 °F 43% 29.72 in 10.0 mi Calm Calm - N/A   Clear
7:53 PM 75.9 °F - 55.9 °F 50% 29.73 in 10.0 mi Calm Calm - N/A   Clear
8:53 PM 70.0 °F - 55.9 °F 61% 29.75 in 10.0 mi Calm Calm - N/A   Clear
9:53 PM 66.9 °F - 54.0 °F 63% 29.77 in 10.0 mi Calm Calm - N/A   Clear
10:53 PM 64.0 °F - 53.1 °F 67% 29.79 in 10.0 mi NNW 4.6 mph - N/A   Mostly Cloudy
11:53 PM 62.1 °F - 54.0 °F 75% 29.80 in 10.0 mi Calm Calm - N/A   Clear